Year,Month,Day,Hour,Minute,Value (Times are PST for temperature in C)
2024,01,13,00,00,-10.20
2024,01,13,00,01,-10.20
2024,01,13,00,02,-10.20
2024,01,13,00,03,-10.20
2024,01,13,00,04,-10.20
2024,01,13,00,05,-10.20
2024,01,13,00,06,-10.20
2024,01,13,00,07,-10.30
2024,01,13,00,08,-10.20
2024,01,13,00,09,-10.30
2024,01,13,00,10,-10.30
2024,01,13,00,11,-10.30
2024,01,13,00,12,-10.30
2024,01,13,00,13,-10.30
2024,01,13,00,14,-10.30
2024,01,13,00,15,-10.30
2024,01,13,00,16,-10.30
2024,01,13,00,17,-10.30
2024,01,13,00,18,-10.30
2024,01,13,00,19,-10.30
2024,01,13,00,20,-10.30
2024,01,13,00,21,-10.20
2024,01,13,00,22,-10.10
2024,01,13,00,23,-10.10
2024,01,13,00,24,-10.10
2024,01,13,00,25,-10.10
2024,01,13,00,26,-10.10
2024,01,13,00,27,-10.10
2024,01,13,00,28,-10.10
2024,01,13,00,29,-10.10
2024,01,13,00,30,-10.10
2024,01,13,00,31,-10.10
2024,01,13,00,32,-10.10
2024,01,13,00,33,-10.10
2024,01,13,00,34,-10.10
2024,01,13,00,35,-10.10
2024,01,13,00,36,-10.10
2024,01,13,00,37,-10.10
2024,01,13,00,38,-10.10
2024,01,13,00,39,-10.10
2024,01,13,00,40,-10.10
2024,01,13,00,41,-10.10
2024,01,13,00,42,-10.00
2024,01,13,00,43,-9.90
2024,01,13,00,44,-9.90
2024,01,13,00,45,-9.80
2024,01,13,00,46,-9.80
2024,01,13,00,47,-9.80
2024,01,13,00,48,-9.70
2024,01,13,00,49,-9.70
2024,01,13,00,50,-9.70
2024,01,13,00,51,-9.70
2024,01,13,00,52,-9.70
2024,01,13,00,53,-9.70
2024,01,13,00,54,-9.70
2024,01,13,00,55,-9.60
2024,01,13,00,56,-9.60
2024,01,13,00,57,-9.60
2024,01,13,00,58,-9.60
2024,01,13,00,59,-9.60
2024,01,13,01,00,-9.60
2024,01,13,01,01,-9.60
2024,01,13,01,02,-9.60
2024,01,13,01,03,-9.60
2024,01,13,01,04,-9.60
2024,01,13,01,05,-9.60
2024,01,13,01,06,-9.60
2024,01,13,01,07,-9.60
2024,01,13,01,08,-9.60
2024,01,13,01,09,-9.50
2024,01,13,01,10,-9.50
2024,01,13,01,11,-9.40
2024,01,13,01,12,-9.40
2024,01,13,01,13,-9.40
2024,01,13,01,14,-9.40
2024,01,13,01,15,-9.40
2024,01,13,01,16,-9.40
2024,01,13,01,17,-9.40
2024,01,13,01,18,-9.40
2024,01,13,01,19,-9.50
2024,01,13,01,20,-9.50
2024,01,13,01,21,-9.50
2024,01,13,01,22,-9.60
2024,01,13,01,23,-9.60
2024,01,13,01,24,-9.60
2024,01,13,01,25,-9.60
2024,01,13,01,26,-9.60
2024,01,13,01,27,-9.60
2024,01,13,01,28,-9.70
2024,01,13,01,29,-9.70
2024,01,13,01,30,-9.70
2024,01,13,01,31,-9.70
2024,01,13,01,32,-9.70
2024,01,13,01,33,-9.80
2024,01,13,01,34,-9.80
2024,01,13,01,35,-9.80
2024,01,13,01,36,-9.90
2024,01,13,01,37,-9.90
2024,01,13,01,38,-9.90
2024,01,13,01,39,-9.90
2024,01,13,01,40,-9.90
2024,01,13,01,41,-9.90
2024,01,13,01,42,-9.90
2024,01,13,01,43,-9.90
2024,01,13,01,44,-9.90
2024,01,13,01,45,-9.90
2024,01,13,01,46,-9.90
2024,01,13,01,47,-9.90
2024,01,13,01,48,-9.90
2024,01,13,01,49,-9.90
2024,01,13,01,50,-9.90
2024,01,13,01,51,-9.90
2024,01,13,01,52,-9.90
2024,01,13,01,53,-10.00
2024,01,13,01,54,-9.90
2024,01,13,01,55,-9.90
2024,01,13,01,56,-10.00
2024,01,13,01,57,-10.00
2024,01,13,01,58,-10.10
2024,01,13,01,59,-10.10
2024,01,13,02,00,-10.10
2024,01,13,02,01,-10.10
2024,01,13,02,02,-10.10
2024,01,13,02,03,-10.10
2024,01,13,02,04,-10.10
2024,01,13,02,05,-10.10
2024,01,13,02,06,-10.20
2024,01,13,02,07,-10.10
2024,01,13,02,08,-10.10
2024,01,13,02,09,-10.10
2024,01,13,02,10,-10.10
2024,01,13,02,11,-10.10
2024,01,13,02,12,-10.10
2024,01,13,02,13,-10.10
2024,01,13,02,14,-10.10
2024,01,13,02,15,-10.10
2024,01,13,02,16,-10.10
2024,01,13,02,17,-10.10
2024,01,13,02,18,-10.10
2024,01,13,02,19,-10.20
2024,01,13,02,20,-10.20
2024,01,13,02,21,-10.20
2024,01,13,02,22,-10.20
2024,01,13,02,23,-10.20
2024,01,13,02,24,-10.20
2024,01,13,02,25,-10.30
2024,01,13,02,26,-10.30
2024,01,13,02,27,-10.30
2024,01,13,02,28,-10.30
2024,01,13,02,29,-10.30
2024,01,13,02,30,-10.30
2024,01,13,02,31,-10.20
2024,01,13,02,32,-10.20
2024,01,13,02,33,-10.20
2024,01,13,02,34,-10.20
2024,01,13,02,35,-10.20
2024,01,13,02,36,-10.20
2024,01,13,02,37,-10.10
2024,01,13,02,38,-10.10
2024,01,13,02,39,-10.10
2024,01,13,02,40,-10.10
2024,01,13,02,41,-10.10
2024,01,13,02,42,-10.00
2024,01,13,02,43,-10.00
2024,01,13,02,44,-10.00
2024,01,13,02,45,-10.00
2024,01,13,02,46,-10.10
2024,01,13,02,47,-10.00
2024,01,13,02,48,-10.10
2024,01,13,02,49,-10.00
2024,01,13,02,50,-10.00
2024,01,13,02,51,-10.10
2024,01,13,02,52,-10.00
2024,01,13,02,53,-10.10
2024,01,13,02,54,-10.10
2024,01,13,02,55,-10.10
2024,01,13,02,56,-10.10
2024,01,13,02,57,-10.10
2024,01,13,02,58,-10.10
2024,01,13,02,59,-10.10
2024,01,13,03,00,-10.10
2024,01,13,03,01,-10.10
2024,01,13,03,02,-10.20
2024,01,13,03,03,-10.20
2024,01,13,03,04,-10.20
2024,01,13,03,05,-10.20
2024,01,13,03,06,-10.20
2024,01,13,03,07,-10.20
2024,01,13,03,08,-10.20
2024,01,13,03,09,-10.20
2024,01,13,03,10,-10.20
2024,01,13,03,11,-10.20
2024,01,13,03,12,-10.20
2024,01,13,03,13,-10.20
2024,01,13,03,14,-10.20
2024,01,13,03,15,-10.20
2024,01,13,03,16,-10.20
2024,01,13,03,17,-10.20
2024,01,13,03,18,-10.20
2024,01,13,03,19,-10.20
2024,01,13,03,20,-10.20
2024,01,13,03,21,-10.20
2024,01,13,03,22,-10.20
2024,01,13,03,23,-10.20
2024,01,13,03,24,-10.20
2024,01,13,03,25,-10.20
2024,01,13,03,26,-10.20
2024,01,13,03,27,-10.20
2024,01,13,03,28,-10.20
2024,01,13,03,29,-10.20
2024,01,13,03,30,-10.30
2024,01,13,03,31,-10.20
2024,01,13,03,32,-10.20
2024,01,13,03,33,-10.30
2024,01,13,03,34,-10.30
2024,01,13,03,35,-10.30
2024,01,13,03,36,-10.30
2024,01,13,03,37,-10.30
2024,01,13,03,38,-10.30
2024,01,13,03,39,-10.20
2024,01,13,03,40,-10.20
2024,01,13,03,41,-10.20
2024,01,13,03,42,-10.10
2024,01,13,03,43,-10.10
2024,01,13,03,44,-10.10
2024,01,13,03,45,-10.00
2024,01,13,03,46,-9.90
2024,01,13,03,47,-9.90
2024,01,13,03,48,-9.90
2024,01,13,03,49,-9.90
2024,01,13,03,50,-9.90
2024,01,13,03,51,-9.90
2024,01,13,03,52,-9.90
2024,01,13,03,53,-9.90
2024,01,13,03,54,-9.80
2024,01,13,03,55,-9.90
2024,01,13,03,56,-9.90
2024,01,13,03,57,-9.80
2024,01,13,03,58,-9.80
2024,01,13,03,59,-9.80
2024,01,13,04,00,-9.80
2024,01,13,04,01,-9.80
2024,01,13,04,02,-9.80
2024,01,13,04,03,-9.70
2024,01,13,04,04,-9.80
2024,01,13,04,05,-9.80
2024,01,13,04,06,-9.80
2024,01,13,04,07,-9.80
2024,01,13,04,08,-9.80
2024,01,13,04,09,-9.80
2024,01,13,04,10,-9.80
2024,01,13,04,11,-9.90
2024,01,13,04,12,-9.90
2024,01,13,04,13,-9.90
2024,01,13,04,14,-9.90
2024,01,13,04,15,-9.90
2024,01,13,04,16,-10.00
2024,01,13,04,17,-10.00
2024,01,13,04,18,-10.00
2024,01,13,04,19,-10.00
2024,01,13,04,20,-10.10
2024,01,13,04,21,-10.10
2024,01,13,04,22,-10.10
2024,01,13,04,23,-10.10
2024,01,13,04,24,-10.10
2024,01,13,04,25,-10.10
2024,01,13,04,26,-10.10
2024,01,13,04,27,-10.10
2024,01,13,04,28,-10.10
2024,01,13,04,29,-10.10
2024,01,13,04,30,-10.10
2024,01,13,04,31,-10.10
2024,01,13,04,32,-10.10
2024,01,13,04,33,-10.10
2024,01,13,04,34,-10.10
2024,01,13,04,35,-10.10
2024,01,13,04,36,-10.20
2024,01,13,04,37,-10.20
2024,01,13,04,38,-10.20
2024,01,13,04,39,-10.20
2024,01,13,04,40,-10.20
2024,01,13,04,41,-10.30
2024,01,13,04,42,-10.30
2024,01,13,04,43,-10.30
2024,01,13,04,44,-10.30
2024,01,13,04,45,-10.30
2024,01,13,04,46,-10.30
2024,01,13,04,47,-10.30
2024,01,13,04,48,-10.30
2024,01,13,04,49,-10.30
2024,01,13,04,50,-10.40
2024,01,13,04,51,-10.40
2024,01,13,04,52,-10.40
2024,01,13,04,53,-10.40
2024,01,13,04,54,-10.40
2024,01,13,04,55,-10.40
2024,01,13,04,56,-10.40
2024,01,13,04,57,-10.40
2024,01,13,04,58,-10.40
2024,01,13,04,59,-10.40
2024,01,13,05,00,-10.40
2024,01,13,05,01,-10.40
2024,01,13,05,02,-10.40
2024,01,13,05,03,-10.40
2024,01,13,05,04,-10.50
2024,01,13,05,05,-10.50
2024,01,13,05,06,-10.50
2024,01,13,05,07,-10.50
2024,01,13,05,08,-10.50
2024,01,13,05,09,-10.50
2024,01,13,05,10,-10.50
2024,01,13,05,11,-10.50
2024,01,13,05,12,-10.40
2024,01,13,05,13,-10.40
2024,01,13,05,14,-10.30
2024,01,13,05,15,-10.20
2024,01,13,05,16,-10.20
2024,01,13,05,17,-10.10
2024,01,13,05,18,-10.10
2024,01,13,05,19,-10.00
2024,01,13,05,20,-10.00
2024,01,13,05,21,-10.00
2024,01,13,05,22,-9.90
2024,01,13,05,23,-9.90
2024,01,13,05,24,-9.90
2024,01,13,05,25,-9.90
2024,01,13,05,26,-9.90
2024,01,13,05,27,-9.90
2024,01,13,05,28,-10.00
2024,01,13,05,29,-10.10
2024,01,13,05,30,-10.10
2024,01,13,05,31,-10.10
2024,01,13,05,32,-10.20
2024,01,13,05,33,-10.20
2024,01,13,05,34,-10.20
2024,01,13,05,35,-10.20
2024,01,13,05,36,-10.20
2024,01,13,05,37,-10.30
2024,01,13,05,38,-10.30
2024,01,13,05,39,-10.30
2024,01,13,05,40,-10.40
2024,01,13,05,41,-10.40
2024,01,13,05,42,-10.40
2024,01,13,05,43,-10.40
2024,01,13,05,44,-10.40
2024,01,13,05,45,-10.40
2024,01,13,05,46,-10.50
2024,01,13,05,47,-10.50
2024,01,13,05,48,-10.50
2024,01,13,05,49,-10.50
2024,01,13,05,50,-10.60
2024,01,13,05,51,-10.60
2024,01,13,05,52,-10.60
2024,01,13,05,53,-10.60
2024,01,13,05,54,-10.60
2024,01,13,05,55,-10.60
2024,01,13,05,56,-10.60
2024,01,13,05,57,-10.70
2024,01,13,05,58,-10.70
2024,01,13,05,59,-10.70
2024,01,13,06,00,-10.70
2024,01,13,06,01,-10.70
2024,01,13,06,02,-10.70
2024,01,13,06,03,-10.70
2024,01,13,06,04,-10.70
2024,01,13,06,05,-10.70
2024,01,13,06,06,-10.80
2024,01,13,06,07,-10.80
2024,01,13,06,08,-10.80
2024,01,13,06,09,-10.80
2024,01,13,06,10,-10.80
2024,01,13,06,11,-10.80
2024,01,13,06,12,-10.80
2024,01,13,06,13,-10.80
2024,01,13,06,14,-10.80
2024,01,13,06,15,-10.80
2024,01,13,06,16,-10.90
2024,01,13,06,17,-10.90
2024,01,13,06,18,-10.90
2024,01,13,06,19,-10.90
2024,01,13,06,20,-10.90
2024,01,13,06,21,-10.90
2024,01,13,06,22,-10.90
2024,01,13,06,23,-10.90
2024,01,13,06,24,-10.90
2024,01,13,06,25,-10.90
2024,01,13,06,26,-11.00
2024,01,13,06,27,-11.00
2024,01,13,06,28,-11.00
2024,01,13,06,29,-11.00
2024,01,13,06,30,-11.00
2024,01,13,06,31,-11.00
2024,01,13,06,32,-11.00
2024,01,13,06,33,-11.00
2024,01,13,06,34,-11.10
2024,01,13,06,35,-11.10
2024,01,13,06,36,-11.10
2024,01,13,06,37,-11.10
2024,01,13,06,38,-11.10
2024,01,13,06,39,-11.10
2024,01,13,06,40,-11.10
2024,01,13,06,41,-11.10
2024,01,13,06,42,-11.10
2024,01,13,06,43,-11.10
2024,01,13,06,44,-11.00
2024,01,13,06,45,-11.00
2024,01,13,06,46,-11.00
2024,01,13,06,47,-11.00
2024,01,13,06,48,-11.00
2024,01,13,06,49,-11.00
2024,01,13,06,50,-11.00
2024,01,13,06,51,-11.00
2024,01,13,06,52,-11.00
2024,01,13,06,53,-11.00
2024,01,13,06,54,-11.00
2024,01,13,06,55,-11.00
2024,01,13,06,56,-11.00
2024,01,13,06,57,-11.00
2024,01,13,06,58,-11.00
2024,01,13,06,59,-11.00
2024,01,13,07,00,-11.00
2024,01,13,07,01,-11.00
2024,01,13,07,02,-11.10
2024,01,13,07,03,-11.00
2024,01,13,07,04,-11.10
2024,01,13,07,05,-11.10
2024,01,13,07,06,-11.10
2024,01,13,07,07,-11.00
2024,01,13,07,08,-11.10
2024,01,13,07,09,-11.10
2024,01,13,07,10,-11.10
2024,01,13,07,11,-11.10
2024,01,13,07,12,-11.10
2024,01,13,07,13,-11.10
2024,01,13,07,14,-11.10
2024,01,13,07,15,-11.10
2024,01,13,07,16,-11.10
2024,01,13,07,17,-11.10
2024,01,13,07,18,-11.10
2024,01,13,07,19,-11.10
2024,01,13,07,20,-11.10
2024,01,13,07,21,-11.10
2024,01,13,07,22,-11.20
2024,01,13,07,23,-11.20
2024,01,13,07,24,-11.20
2024,01,13,07,25,-11.20
2024,01,13,07,26,-11.20
2024,01,13,07,27,-11.20
2024,01,13,07,28,-11.20
2024,01,13,07,29,-11.20
2024,01,13,07,30,-11.20
2024,01,13,07,31,-11.20
2024,01,13,07,32,-11.20
2024,01,13,07,33,-11.20
2024,01,13,07,34,-11.20
2024,01,13,07,35,-11.20
2024,01,13,07,36,-11.20
2024,01,13,07,37,-11.30
2024,01,13,07,38,-11.30
2024,01,13,07,39,-11.30
2024,01,13,07,40,-11.30
2024,01,13,07,41,-11.30
2024,01,13,07,42,-11.30
2024,01,13,07,43,-11.30
2024,01,13,07,44,-11.30
2024,01,13,07,45,-11.30
2024,01,13,07,46,-11.30
2024,01,13,07,47,-11.30
2024,01,13,07,48,-11.30
2024,01,13,07,49,-11.30
2024,01,13,07,50,-11.30
2024,01,13,07,51,-11.30
2024,01,13,07,52,-11.30
2024,01,13,07,53,-11.30
2024,01,13,07,54,-11.30
2024,01,13,07,55,-11.30
2024,01,13,07,56,-11.30
2024,01,13,07,57,-11.30
2024,01,13,07,58,-11.30
2024,01,13,07,59,-11.30
2024,01,13,08,00,-11.30
2024,01,13,08,01,-11.30
2024,01,13,08,02,-11.30
2024,01,13,08,03,-11.30
2024,01,13,08,04,-11.30
2024,01,13,08,05,-11.30
2024,01,13,08,06,-11.30
2024,01,13,08,07,-11.30
2024,01,13,08,08,-11.30
2024,01,13,08,09,-11.30
2024,01,13,08,10,-11.30
2024,01,13,08,11,-11.30
2024,01,13,08,12,-11.30
2024,01,13,08,13,-11.30
2024,01,13,08,14,-11.30
2024,01,13,08,15,-11.30
2024,01,13,08,16,-11.30
2024,01,13,08,17,-11.30
2024,01,13,08,18,-11.30
2024,01,13,08,19,-11.30
2024,01,13,08,20,-11.30
2024,01,13,08,21,-11.30
2024,01,13,08,22,-11.30
2024,01,13,08,23,-11.30
2024,01,13,08,24,-11.30
2024,01,13,08,25,-11.30
2024,01,13,08,26,-11.30
2024,01,13,08,27,-11.30
2024,01,13,08,28,-11.30
2024,01,13,08,29,-11.30
2024,01,13,08,30,-11.30
2024,01,13,08,31,-11.20
2024,01,13,08,32,-11.20
2024,01,13,08,33,-11.20
2024,01,13,08,34,-11.20
2024,01,13,08,35,-11.20
2024,01,13,08,36,-11.20
2024,01,13,08,37,-11.20
2024,01,13,08,38,-11.20
2024,01,13,08,39,-11.20
2024,01,13,08,40,-11.20
2024,01,13,08,41,-11.20
2024,01,13,08,42,-11.20
2024,01,13,08,43,-11.20
2024,01,13,08,44,-11.10
2024,01,13,08,45,-11.10
2024,01,13,08,46,-11.10
2024,01,13,08,47,-11.10
2024,01,13,08,48,-11.10
2024,01,13,08,49,-11.10
2024,01,13,08,50,-11.10
2024,01,13,08,51,-11.10
2024,01,13,08,52,-11.10
2024,01,13,08,53,-11.10
2024,01,13,08,54,-11.10
2024,01,13,08,55,-11.10
2024,01,13,08,56,-11.00
2024,01,13,08,57,-11.00
2024,01,13,08,58,-11.00
2024,01,13,08,59,-11.00
2024,01,13,09,00,-11.00
2024,01,13,09,01,-10.90
2024,01,13,09,02,-10.90
2024,01,13,09,03,-10.90
2024,01,13,09,04,-10.90
2024,01,13,09,05,-10.90
2024,01,13,09,06,-10.90
2024,01,13,09,07,-10.90
2024,01,13,09,08,-10.90
2024,01,13,09,09,-10.80
2024,01,13,09,10,-10.80
2024,01,13,09,11,-10.80
2024,01,13,09,12,-10.80
2024,01,13,09,13,-10.80
2024,01,13,09,14,-10.80
2024,01,13,09,15,-10.80
2024,01,13,09,16,-10.80
2024,01,13,09,17,-10.80
2024,01,13,09,18,-10.80
2024,01,13,09,19,-10.80
2024,01,13,09,20,-10.70
2024,01,13,09,21,-10.70
2024,01,13,09,22,-10.70
2024,01,13,09,23,-10.70
2024,01,13,09,24,-10.70
2024,01,13,09,25,-10.70
2024,01,13,09,26,-10.70
2024,01,13,09,27,-10.60
2024,01,13,09,28,-10.60
2024,01,13,09,29,-10.60
2024,01,13,09,30,-10.60
2024,01,13,09,31,-10.50
2024,01,13,09,32,-10.50
2024,01,13,09,33,-10.50
2024,01,13,09,34,-10.50
2024,01,13,09,35,-10.40
2024,01,13,09,36,-10.40
2024,01,13,09,37,-10.40
2024,01,13,09,38,-10.40
2024,01,13,09,39,-10.40
2024,01,13,09,40,-10.40
2024,01,13,09,41,-10.30
2024,01,13,09,42,-10.30
2024,01,13,09,43,-10.30
2024,01,13,09,44,-10.30
2024,01,13,09,45,-10.30
2024,01,13,09,46,-10.20
2024,01,13,09,47,-10.20
2024,01,13,09,48,-10.20
2024,01,13,09,49,-10.20
2024,01,13,09,50,-10.20
2024,01,13,09,51,-10.10
2024,01,13,09,52,-10.10
2024,01,13,09,53,-10.10
2024,01,13,09,54,-10.10
2024,01,13,09,55,-10.10
2024,01,13,09,56,-10.00
2024,01,13,09,57,-10.00
2024,01,13,09,58,-10.00
2024,01,13,09,59,-9.90
2024,01,13,10,00,-9.90
2024,01,13,10,01,-9.90
2024,01,13,10,02,-9.90
2024,01,13,10,03,-9.90
2024,01,13,10,04,-9.90
2024,01,13,10,05,-9.90
2024,01,13,10,06,-9.80
2024,01,13,10,07,-9.80
2024,01,13,10,08,-9.80
2024,01,13,10,09,-9.80
2024,01,13,10,10,-9.80
2024,01,13,10,11,-9.80
2024,01,13,10,12,-9.80
2024,01,13,10,13,-9.70
2024,01,13,10,14,-9.70
2024,01,13,10,15,-9.70
2024,01,13,10,16,-9.70
2024,01,13,10,17,-9.70
2024,01,13,10,18,-9.60
2024,01,13,10,19,-9.60
2024,01,13,10,20,-9.60
2024,01,13,10,21,-9.60
2024,01,13,10,22,-9.60
2024,01,13,10,23,-9.60
2024,01,13,10,24,-9.50
2024,01,13,10,25,-9.50
2024,01,13,10,26,-9.50
2024,01,13,10,27,-9.40
2024,01,13,10,28,-9.40
2024,01,13,10,29,-9.40
2024,01,13,10,30,-9.40
2024,01,13,10,31,-9.30
2024,01,13,10,32,-9.30
2024,01,13,10,33,-9.30
2024,01,13,10,34,-9.30
2024,01,13,10,35,-9.30
2024,01,13,10,36,-9.30
2024,01,13,10,37,-9.20
2024,01,13,10,38,-9.20
2024,01,13,10,39,-9.10
2024,01,13,10,40,-9.10
2024,01,13,10,41,-9.10
2024,01,13,10,42,-9.00
2024,01,13,10,43,-9.00
2024,01,13,10,44,-9.00
2024,01,13,10,45,-8.90
2024,01,13,10,46,-8.90
2024,01,13,10,47,-8.90
2024,01,13,10,48,-8.90
2024,01,13,10,49,-8.80
2024,01,13,10,50,-8.80
2024,01,13,10,51,-8.80
2024,01,13,10,52,-8.80
2024,01,13,10,53,-8.70
2024,01,13,10,54,-8.70
2024,01,13,10,55,-8.70
2024,01,13,10,56,-8.70
2024,01,13,10,57,-8.70
2024,01,13,10,58,-8.70
2024,01,13,10,59,-8.60
2024,01,13,11,00,-8.60
2024,01,13,11,01,-8.60
2024,01,13,11,02,-8.60
2024,01,13,11,03,-8.60
2024,01,13,11,04,-8.60
2024,01,13,11,05,-8.50
2024,01,13,11,06,-8.50
2024,01,13,11,07,-8.50
2024,01,13,11,08,-8.50
2024,01,13,11,09,-8.40
2024,01,13,11,10,-8.40
2024,01,13,11,11,-8.40
2024,01,13,11,12,-8.40
2024,01,13,11,13,-8.40
2024,01,13,11,14,-8.40
2024,01,13,11,15,-8.40
2024,01,13,11,16,-8.40
2024,01,13,11,17,-8.30
2024,01,13,11,18,-8.30
2024,01,13,11,19,-8.30
2024,01,13,11,20,-8.30
2024,01,13,11,21,-8.30
2024,01,13,11,22,-8.30
2024,01,13,11,23,-8.30
2024,01,13,11,24,-8.20
2024,01,13,11,25,-8.20
2024,01,13,11,26,-8.10
2024,01,13,11,27,-8.10
2024,01,13,11,28,-8.10
2024,01,13,11,29,-8.00
2024,01,13,11,30,-8.00
2024,01,13,11,31,-7.90
2024,01,13,11,32,-7.90
2024,01,13,11,33,-7.90
2024,01,13,11,34,-7.80
2024,01,13,11,35,-7.80
2024,01,13,11,36,-7.80
2024,01,13,11,37,-7.80
2024,01,13,11,38,-7.80
2024,01,13,11,39,-7.80
2024,01,13,11,40,-7.80
2024,01,13,11,41,-7.80
2024,01,13,11,42,-7.80
2024,01,13,11,43,-7.70
2024,01,13,11,44,-7.70
2024,01,13,11,45,-7.70
2024,01,13,11,46,-7.70
2024,01,13,11,47,-7.70
2024,01,13,11,48,-7.70
2024,01,13,11,49,-7.60
2024,01,13,11,50,-7.60
2024,01,13,11,51,-7.60
2024,01,13,11,52,-7.60
2024,01,13,11,53,-7.50
2024,01,13,11,54,-7.50
2024,01,13,11,55,-7.50
2024,01,13,11,56,-7.50
2024,01,13,11,57,-7.40
2024,01,13,11,58,-7.40
2024,01,13,11,59,-7.40
2024,01,13,12,00,-7.40
2024,01,13,12,01,-7.40
2024,01,13,12,02,-7.30
2024,01,13,12,03,-7.30
2024,01,13,12,04,-7.30
2024,01,13,12,05,-7.30
2024,01,13,12,06,-7.30
2024,01,13,12,07,-7.30
2024,01,13,12,08,-7.30
2024,01,13,12,09,-7.30
2024,01,13,12,10,-7.30
2024,01,13,12,11,-7.30
2024,01,13,12,12,-7.20
2024,01,13,12,13,-7.20
2024,01,13,12,14,-7.20
2024,01,13,12,15,-7.20
2024,01,13,12,16,-7.20
2024,01,13,12,17,-7.20
2024,01,13,12,18,-7.20
2024,01,13,12,19,-7.20
2024,01,13,12,20,-7.10
2024,01,13,12,21,-7.10
2024,01,13,12,22,-7.10
2024,01,13,12,23,-7.10
2024,01,13,12,24,-7.10
2024,01,13,12,25,-7.10
2024,01,13,12,26,-7.00
2024,01,13,12,27,-7.00
2024,01,13,12,28,-7.00
2024,01,13,12,29,-7.00
2024,01,13,12,30,-6.90
2024,01,13,12,31,-7.00
2024,01,13,12,32,-6.90
2024,01,13,12,33,-6.90
2024,01,13,12,34,-6.90
2024,01,13,12,35,-6.90
2024,01,13,12,36,-6.90
2024,01,13,12,37,-6.80
2024,01,13,12,38,-6.80
2024,01,13,12,39,-6.80
2024,01,13,12,40,-6.80
2024,01,13,12,41,-6.80
2024,01,13,12,42,-6.80
2024,01,13,12,43,-6.70
2024,01,13,12,44,-6.70
2024,01,13,12,45,-6.70
2024,01,13,12,46,-6.70
2024,01,13,12,47,-6.60
2024,01,13,12,48,-6.60
2024,01,13,12,49,-6.60
2024,01,13,12,50,-6.60
2024,01,13,12,51,-6.60
2024,01,13,12,52,-6.60
2024,01,13,12,53,-6.60
2024,01,13,12,54,-6.60
2024,01,13,12,55,-6.60
2024,01,13,12,56,-6.60
2024,01,13,12,57,-6.60
2024,01,13,12,58,-6.50
2024,01,13,12,59,-6.50
2024,01,13,13,00,-6.50
2024,01,13,13,01,-6.50
2024,01,13,13,02,-6.50
2024,01,13,13,03,-6.50
2024,01,13,13,04,-6.50
2024,01,13,13,05,-6.50
2024,01,13,13,06,-6.50
2024,01,13,13,07,-6.50
2024,01,13,13,08,-6.40
2024,01,13,13,09,-6.40
2024,01,13,13,10,-6.40
2024,01,13,13,11,-6.40
2024,01,13,13,12,-6.30
2024,01,13,13,13,-6.30
2024,01,13,13,14,-6.30
2024,01,13,13,15,-6.30
2024,01,13,13,16,-6.30
2024,01,13,13,17,-6.30
2024,01,13,13,18,-6.20
2024,01,13,13,19,-6.20
2024,01,13,13,20,-6.20
2024,01,13,13,21,-6.20
2024,01,13,13,22,-6.20
2024,01,13,13,23,-6.20
2024,01,13,13,24,-6.20
2024,01,13,13,25,-6.20
2024,01,13,13,26,-6.20
2024,01,13,13,27,-6.20
2024,01,13,13,28,-6.10
2024,01,13,13,29,-6.10
2024,01,13,13,30,-6.10
2024,01,13,13,31,-6.10
2024,01,13,13,32,-6.10
2024,01,13,13,33,-6.10
2024,01,13,13,34,-6.10
2024,01,13,13,35,-6.00
2024,01,13,13,36,-6.00
2024,01,13,13,37,-6.00
2024,01,13,13,38,-6.00
2024,01,13,13,39,-6.00
2024,01,13,13,40,-5.90
2024,01,13,13,41,-5.90
2024,01,13,13,42,-5.90
2024,01,13,13,43,-5.90
2024,01,13,13,44,-5.90
2024,01,13,13,45,-5.90
2024,01,13,13,46,-5.80
2024,01,13,13,47,-5.80
2024,01,13,13,48,-5.80
2024,01,13,13,49,-5.80
2024,01,13,13,50,-5.80
2024,01,13,13,51,-5.80
2024,01,13,13,52,-5.80
2024,01,13,13,53,-5.80
2024,01,13,13,54,-5.80
2024,01,13,13,55,-5.80
2024,01,13,13,56,-5.80
2024,01,13,13,57,-5.80
2024,01,13,13,58,-5.80
2024,01,13,13,59,-5.80
2024,01,13,14,00,-5.70
2024,01,13,14,01,-5.80
2024,01,13,14,02,-5.70
2024,01,13,14,03,-5.70
2024,01,13,14,04,-5.70
2024,01,13,14,05,-5.70
2024,01,13,14,06,-5.60
2024,01,13,14,07,-5.60
2024,01,13,14,08,-5.60
2024,01,13,14,09,-5.60
2024,01,13,14,10,-5.50
2024,01,13,14,11,-5.50
2024,01,13,14,12,-5.50
2024,01,13,14,13,-5.40
2024,01,13,14,14,-5.40
2024,01,13,14,15,-5.40
2024,01,13,14,16,-5.40
2024,01,13,14,17,-5.40
2024,01,13,14,18,-5.40
2024,01,13,14,19,-5.40
2024,01,13,14,20,-5.40
2024,01,13,14,21,-5.40
2024,01,13,14,22,-5.40
2024,01,13,14,23,-5.30
2024,01,13,14,24,-5.30
2024,01,13,14,25,-5.40
2024,01,13,14,26,-5.30
2024,01,13,14,27,-5.30
2024,01,13,14,28,-5.40
2024,01,13,14,29,-5.30
2024,01,13,14,30,-5.30
2024,01,13,14,31,-5.30
2024,01,13,14,32,-5.30
2024,01,13,14,33,-5.30
2024,01,13,14,34,-5.30
2024,01,13,14,35,-5.30
2024,01,13,14,36,-5.30
2024,01,13,14,37,-5.30
2024,01,13,14,38,-5.30
2024,01,13,14,39,-5.30
2024,01,13,14,40,-5.30
2024,01,13,14,41,-5.30
2024,01,13,14,42,-5.30
2024,01,13,14,43,-5.30
2024,01,13,14,44,-5.30
2024,01,13,14,45,-5.30
2024,01,13,14,46,-5.30
2024,01,13,14,47,-5.30
2024,01,13,14,48,-5.30
2024,01,13,14,49,-5.30
2024,01,13,14,50,-5.30
2024,01,13,14,51,-5.30
2024,01,13,14,52,-5.20
2024,01,13,14,53,-5.20
2024,01,13,14,54,-5.20
2024,01,13,14,55,-5.30
2024,01,13,14,56,-5.20
2024,01,13,14,57,-5.20
2024,01,13,14,58,-5.30
2024,01,13,14,59,-5.30
2024,01,13,15,00,-5.30
2024,01,13,15,01,-5.20
2024,01,13,15,02,-5.20
2024,01,13,15,03,-5.20
2024,01,13,15,04,-5.20
2024,01,13,15,05,-5.20
2024,01,13,15,06,-5.20
2024,01,13,15,07,-5.20
2024,01,13,15,08,-5.20
2024,01,13,15,09,-5.10
2024,01,13,15,10,-5.10
2024,01,13,15,11,-5.10
2024,01,13,15,12,-5.10
2024,01,13,15,13,-5.10
2024,01,13,15,14,-5.10
2024,01,13,15,15,-5.10
2024,01,13,15,16,-5.10
2024,01,13,15,17,-5.10
2024,01,13,15,18,-5.10
2024,01,13,15,19,-5.10
2024,01,13,15,20,-5.10
2024,01,13,15,21,-5.10
2024,01,13,15,22,-5.10
2024,01,13,15,23,-5.10
2024,01,13,15,24,-5.20
2024,01,13,15,25,-5.20
2024,01,13,15,26,-5.20
2024,01,13,15,27,-5.20
2024,01,13,15,28,-5.10
2024,01,13,15,29,-5.20
2024,01,13,15,30,-5.20
2024,01,13,15,31,-5.20
2024,01,13,15,32,-5.10
2024,01,13,15,33,-5.10
2024,01,13,15,34,-5.10
2024,01,13,15,35,-5.10
2024,01,13,15,36,-5.10
2024,01,13,15,37,-5.10
2024,01,13,15,38,-5.10
2024,01,13,15,39,-5.10
2024,01,13,15,40,-5.10
2024,01,13,15,41,-5.10
2024,01,13,15,42,-5.10
2024,01,13,15,43,-5.10
2024,01,13,15,44,-5.10
2024,01,13,15,45,-5.10
2024,01,13,15,46,-5.10
2024,01,13,15,47,-5.10
2024,01,13,15,48,-5.10
2024,01,13,15,49,-5.10
2024,01,13,15,50,-5.10
2024,01,13,15,51,-5.10
2024,01,13,15,52,-5.10
2024,01,13,15,53,-5.10
2024,01,13,15,54,-5.10
2024,01,13,15,55,-5.10
2024,01,13,15,56,-5.10
2024,01,13,15,57,-5.10
2024,01,13,15,58,-5.10
2024,01,13,15,59,-5.10
2024,01,13,16,00,-5.10
2024,01,13,16,01,-5.10
2024,01,13,16,02,-5.10
2024,01,13,16,03,-5.10
2024,01,13,16,04,-5.10
2024,01,13,16,05,-5.10
2024,01,13,16,06,-5.10
2024,01,13,16,07,-5.10
2024,01,13,16,08,-5.10
2024,01,13,16,09,-5.10
2024,01,13,16,10,-5.10
2024,01,13,16,11,-5.20
2024,01,13,16,12,-5.20
2024,01,13,16,13,-5.20
2024,01,13,16,14,-5.20
2024,01,13,16,15,-5.20
2024,01,13,16,16,-5.30
2024,01,13,16,17,-5.30
2024,01,13,16,18,-5.30
2024,01,13,16,19,-5.30
2024,01,13,16,20,-5.30
2024,01,13,16,21,-5.30
2024,01,13,16,22,-5.30
2024,01,13,16,23,-5.40
2024,01,13,16,24,-5.40
2024,01,13,16,25,-5.40
2024,01,13,16,26,-5.40
2024,01,13,16,27,-5.40
2024,01,13,16,28,-5.40
2024,01,13,16,29,-5.40
2024,01,13,16,30,-5.40
2024,01,13,16,31,-5.40
2024,01,13,16,32,-5.40
2024,01,13,16,33,-5.40
2024,01,13,16,34,-5.50
2024,01,13,16,35,-5.50
2024,01,13,16,36,-5.50
2024,01,13,16,37,-5.50
2024,01,13,16,38,-5.50
2024,01,13,16,39,-5.50
2024,01,13,16,40,-5.50
2024,01,13,16,41,-5.50
2024,01,13,16,42,-5.50
2024,01,13,16,43,-5.50
2024,01,13,16,44,-5.60
2024,01,13,16,45,-5.60
2024,01,13,16,46,-5.60
2024,01,13,16,47,-5.60
2024,01,13,16,48,-5.60
2024,01,13,16,49,-5.60
2024,01,13,16,50,-5.60
2024,01,13,16,51,-5.60
2024,01,13,16,52,-5.60
2024,01,13,16,53,-5.60
2024,01,13,16,54,-5.60
2024,01,13,16,55,-5.60
2024,01,13,16,56,-5.60
2024,01,13,16,57,-5.60
2024,01,13,16,58,-5.70